Weather in Ufa

Russia / Republic of Bashkortostan     54°44′06″N   55°57′31″E
temp.,
°C
wind,
m/s
gust,
m/s
humid.,
%
clouds,
%
prec.,
mm/h
press.,
hPa
HPBL,
m
24 september, fri
fri2423:00+10se4115698 0.0 1025276
02:00+9se51356100 0.0 1025360
05:00+9se51355100 0.0 1025421
08:00+10sse41251100 0.0 1025526
11:00+11sse51146100 0.0 1024747
14:00+12se51143100 0.0 1024725
17:00+12se3104398 0.0 1023515
20:00+12ese3945100 0.0 1022253
25 september, sat
sat2523:00+11se51143100 0.0 1021398
02:00+11ese41043100 0.0 1020412
05:00+11ese4942100 0.0 1018308
08:00+10ese51040100 0.0 1016341
11:00+14se61232100 0.0 1015797
14:00+18sse61025100 0.0 10131242
17:00+16se61028100 0.0 10141069
20:00+14sse41033100 0.1 1014726
26 september, sun
sun2623:00+12e51144100 0.1 1013457
02:00+13e51238100 0.0 1011512
05:00+13e41034100 0.0 1010305
08:00+13ese51133100 0.0 1010558
11:00+11se51264100 0.1 1011705
14:00+10ese61273100 1.9 1010634
17:00+11ese61158100 1.9 1010490
20:00+11e51248100 0.0 1011563
27 september, mon
mon2723:00+11ese71251100 0.0 1011882
02:00+9ese61176100 0.1 1012757
05:00+7ene5892100 2.9 1012492
08:00+5ene61179100 0.4 1013535
11:00+7ene71061100 0.4 1014636
14:00+11ene71038100 0.0 10141389
17:00+8ene7114591 0.0 10161099
20:00+7ene494280 0.0 10181052
28 september, tue
tue2823:00+5ne511520 0.0 1019743
02:00+4ne511590 0.0 1020696
05:00+3ne612675 0.0 1022655
08:00+2ne510716 0.0 1024792
11:00+5ne684827 0.0 10241246
14:00+8ne5640100 0.0 10241461
17:00+8nne5640100 0.0 10241575
20:00+6nne5951100 0.0 1025568